FW3938 Weather Reports


Display with metric or nautical units.
time (UTC)temp
F
wind
direction
speed
MPH
gust
MPH
rain 1hr
in
rain 24hr
in
rain mn
in
humidity
%
barometer
mb
20260510224542 79 360 1.0 3.0 0.00 0.00 0.00 47 993.4
20260510223035 79 360 0.0 2.0 0.00 0.00 0.00 39 993.4
20260510221534 80 360 0.0 3.0 0.00 0.00 0.00 36 993.4
20260510220034 80 360 0.0 4.0 0.00 0.00 0.00 41 993.3
20260510214533 80 360 1.0 4.0 0.00 0.00 0.00 38 993.2
20260510213031 81 360 0.0 3.0 0.00 0.00 0.00 38 993.3
20260510211535 81 360 3.0 5.0 0.00 0.00 0.00 40 993.1
20260510210031 81 338 1.0 4.0 0.00 0.00 0.00 36 993.1
20260510204531 81 138 0.0 7.0 0.00 0.00 0.00 39 993.2
20260510203030 80 169 2.0 5.0 0.00 0.00 0.00 39 993.4
20260510201529 80 355 0.0 4.0 0.00 0.00 0.00 42 993.3
20260510200029 80 360 0.0 3.0 0.00 0.00 0.00 39 993.5
20260510194528 80 200 0.0 3.0 0.00 0.00 0.00 40 993.6
20260510193028 80 305 1.0 4.0 0.00 0.00 0.00 40 993.7
20260510191527 80 188 2.0 5.0 0.00 0.00 0.00 40 993.8
20260510190027 80 281 2.0 5.0 0.00 0.00 0.00 40 993.9
20260510184526 81 139 2.0 5.0 0.00 0.00 0.00 41 994.0
20260510183026 81 312 1.0 4.0 0.00 0.00 0.00 42 994.1
20260510181525 83 349 2.0 5.0 0.00 0.00 0.00 38 994.2
20260510180024 85 15 2.0 5.0 0.00 0.00 0.00 37 994.2
20260510174526 87 40 1.0 3.0 0.00 0.00 0.00 34 994.4
20260510173024 86 26 0.0 3.0 0.00 0.00 0.00 40 994.7
20260510171527 87 355 1.0 5.0 0.00 0.00 0.00 34 994.7
20260510170022 87 360 1.0 5.0 0.00 0.00 0.00 40 994.9
20260510164520 86 140 0.0 5.0 0.00 0.00 0.00 35 994.9
20260510163017 86 307 1.0 3.0 0.00 0.00 0.00 39 994.9
20260510161516 85 168 1.0 5.0 0.00 0.00 0.00 42 995.0
20260510160013 84 5 2.0 6.0 0.00 0.00 0.00 42 994.9
20260510154510 83 251 0.0 7.0 0.00 0.00 0.00 48 994.9
20260510153008 83 329 2.0 5.0 0.00 0.00 0.00 46 994.9
20260510151507 82 283 1.0 4.0 0.00 0.00 0.00 47 995.0
20260510150005 82 333 1.0 5.0 0.00 0.00 0.00 50 995.0
20260510144614 81 93 1.0 5.0 0.00 0.00 0.00 51 995.1
20260510143109 80 335 1.0 4.0 0.00 0.00 0.00 56 995.0
20260510141600 79 355 0.0 3.0 0.00 0.00 0.00 63 995.0
20260510140049 76 360 1.0 3.0 0.00 0.00 0.00 67 995.0
20260510134602 74 360 1.0 4.0 0.00 0.00 0.00 72 995.0
20260510133041 71 360 1.0 5.0 0.00 0.00 0.00 77 995.0
20260510131537 66 360 1.0 3.0 0.00 0.00 0.00 90 994.9
20260510130032 62 360 1.0 5.0 0.00 0.00 0.00 96 994.9
20260510124531 56 360 1.0 3.0 0.00 0.03 0.00 94 994.8
20260510123028 55 360 0.0 1.0 0.00 0.03 0.00 93 994.6
20260510121528 54 360 0.0 0.0 0.00 0.03 0.00 93 994.3
20260510120035 54 360 0.0 0.0 0.00 0.03 0.00 92 994.0
20260510114523 54 360 0.0 0.0 0.00 0.04 0.00 92 993.8
20260510113024 54 360 0.0 0.0 0.00 0.04 0.00 92 993.7
20260510111521 54 360 0.0 0.0 0.00 0.04 0.00 92 993.4
20260510110023 54 360 0.0 0.0 0.00 0.04 0.00 92 993.4
20260510104516 54 360 0.0 0.0 0.00 0.04 0.00 92 993.1
20260510103013 55 360 0.0 0.0 0.00 0.04 0.00 92 992.8
20260510101512 55 360 0.0 0.0 0.00 0.04 0.00 92 992.7
20260510100010 55 360 0.0 0.0 0.00 0.04 0.00 92 992.6
20260510094521 56 360 0.0 0.0 0.00 0.04 0.00 92 992.4
20260510093007 56 360 0.0 0.0 0.00 0.04 0.00 92 992.2
20260510091506 56 360 0.0 0.0 0.00 0.04 0.00 93 992.0
20260510090003 56 360 0.0 0.0 0.00 0.04 0.00 93 991.7
20260510084601 56 360 0.0 0.0 0.00 0.04 0.00 93 991.6
20260510083106 57 360 0.0 0.0 0.00 0.04 0.00 93 991.5
20260510081628 57 360 0.0 0.0 0.00 0.04 0.00 93 991.3
20260510080058 57 360 0.0 0.0 0.00 0.04 0.00 93 991.3
20260510074602 57 360 0.0 0.0 0.00 0.04 0.00 93 991.2
20260510073056 57 360 0.0 0.0 0.00 0.04 0.00 93 991.1
20260510071556 57 360 0.0 0.0 0.00 0.04 0.00 93 991.0
20260510070056 57 360 0.0 0.0 0.00 0.04 0.00 93 991.0
20260510064553 57 360 0.0 0.0 0.00 0.04 0.00 93 991.2
20260510063056 58 360 0.0 0.0 0.00 0.04 0.00 93 991.2
20260510061551 58 360 0.0 0.0 0.00 0.04 0.00 93 991.2
20260510060057 58 360 0.0 0.0 0.00 0.04 0.00 93 991.3
20260510054550 58 360 0.0 0.0 0.00 0.04 0.00 93 991.2
20260510053050 58 360 0.0 0.0 0.00 0.04 0.00 93 991.3
20260510051622 58 360 0.0 0.0 0.00 0.04 0.00 92 991.1
20260510050047 58 360 0.0 0.0 0.00 0.04 0.00 92 991.2
20260510044546 58 360 0.0 0.0 0.00 0.04 0.00 92 991.4
20260510043112 59 360 0.0 0.0 0.00 0.04 0.00 92 991.4
20260510041550 59 360 0.0 0.0 0.00 0.04 0.00 92 991.5
20260510040041 59 360 0.0 0.0 0.00 0.04 0.00 91 991.4
20260510034545 59 360 0.0 0.0 0.00 0.04 0.03 91 991.5
20260510033041 59 360 0.0 0.0 0.00 0.04 0.03 91 991.7
20260510031607 60 360 0.0 0.0 0.00 0.04 0.03 91 991.6
20260510030039 60 360 0.0 0.0 0.00 0.04 0.03 90 991.6
20260510024540 60 360 0.0 0.0 0.00 0.04 0.03 90 991.5
20260510023046 61 360 0.0 0.0 0.00 0.04 0.03 89 991.5
20260510021543 61 360 0.0 0.0 0.00 0.04 0.03 89 991.4
20260510020038 62 360 0.0 0.0 0.00 0.04 0.03 88 991.4
20260510014537 62 360 0.0 0.0 0.00 0.04 0.03 87 991.0
20260510013038 63 360 0.0 0.0 0.00 0.04 0.03 87 990.9
20260510011546 64 360 0.0 0.0 0.00 0.04 0.03 85 990.7
20260510010042 65 360 0.0 0.0 0.00 0.04 0.03 84 990.5
20260510004536 66 360 0.0 1.0 0.00 0.04 0.03 83 990.3
20260510003034 67 360 0.0 0.0 0.00 0.04 0.03 82 990.0
20260510001533 68 360 0.0 1.0 0.00 0.04 0.03 80 989.8
20260510000033 69 360 0.0 4.0 0.00 0.04 0.03 78 989.8
20260509234535 69 360 0.0 1.0 0.00 0.04 0.03 80 989.7
20260509233032 70 360 0.0 2.0 0.00 0.04 0.03 80 989.6
20260509231532 71 360 0.0 3.0 0.00 0.04 0.03 78 989.6
20260509230031 71 360 1.0 4.0 0.00 0.04 0.03 75 989.4